owner,sensor,date,latitude,longitude,vertical_datum,sea_water_practical_salinity,qcFlag 
DISL,ioos:station:DISL:PPTA:1,2016-09-01T00:00:00Z,30.2791,-87.5561,1.592,21.26,1111122 
DISL,ioos:station:DISL:PPTA:1,2016-09-01T00:30:00Z,30.2791,-87.5561,1.608,21.32,1111122 
DISL,ioos:station:DISL:PPTA:1,2016-09-01T01:00:00Z,30.2791,-87.5561,1.617,17.87,1111122 
DISL,ioos:station:DISL:PPTA:1,2016-09-01T01:30:00Z,30.2791,-87.5561,1.593,20.6,1111122 
DISL,ioos:station:DISL:PPTA:1,2016-09-01T02:00:00Z,30.2791,-87.5561,1.613,21.05,1111122 
DISL,ioos:station:DISL:PPTA:1,2016-09-01T02:30:00Z,30.2791,-87.5561,1.594,21.41,1111122 
DISL,ioos:station:DISL:PPTA:1,2016-09-01T03:00:00Z,30.2791,-87.5561,1.6,21.8,1111122 
DISL,ioos:station:DISL:PPTA:1,2016-09-01T03:30:00Z,30.2791,-87.5561,1.588,21.26,1111122 
DISL,ioos:station:DISL:PPTA:1,2016-09-01T04:00:00Z,30.2791,-87.5561,1.608,24.87,1111122 
DISL,ioos:station:DISL:PPTA:1,2016-09-01T04:30:00Z,30.2791,-87.5561,1.605,26.18,1111122 
DISL,ioos:station:DISL:PPTA:1,2016-09-01T05:00:00Z,30.2791,-87.5561,1.612,26.62,1111122 
DISL,ioos:station:DISL:PPTA:1,2016-09-01T05:30:00Z,30.2791,-87.5561,1.628,27.72,1111122 
DISL,ioos:station:DISL:PPTA:1,2016-09-01T06:00:00Z,30.2791,-87.5561,1.635,28.04,1111122 
DISL,ioos:station:DISL:PPTA:1,2016-09-01T06:30:00Z,30.2791,-87.5561,1.652,28.64,1111122 
DISL,ioos:station:DISL:PPTA:1,2016-09-01T07:00:00Z,30.2791,-87.5561,1.646,29.05,1111122 
DISL,ioos:station:DISL:PPTA:1,2016-09-01T07:30:00Z,30.2791,-87.5561,1.652,29.06,1111122 
DISL,ioos:station:DISL:PPTA:1,2016-09-01T08:00:00Z,30.2791,-87.5561,1.646,29.59,1111122 
DISL,ioos:station:DISL:PPTA:1,2016-09-01T08:30:00Z,30.2791,-87.5561,1.661,29.5,1111122 
DISL,ioos:station:DISL:PPTA:1,2016-09-01T09:00:00Z,30.2791,-87.5561,1.661,29.75,1111122 
DISL,ioos:station:DISL:PPTA:1,2016-09-01T09:30:00Z,30.2791,-87.5561,1.676,29.75,1111122 
DISL,ioos:station:DISL:PPTA:1,2016-09-01T10:00:00Z,30.2791,-87.5561,1.656,29.75,1111122 
DISL,ioos:station:DISL:PPTA:1,2016-09-01T10:30:00Z,30.2791,-87.5561,1.692,29.62,1111122 
DISL,ioos:station:DISL:PPTA:1,2016-09-01T11:00:00Z,30.2791,-87.5561,1.728,29.65,1111122 
DISL,ioos:station:DISL:PPTA:1,2016-09-01T11:30:00Z,30.2791,-87.5561,1.765,29.9,1111122 
DISL,ioos:station:DISL:PPTA:1,2016-09-01T12:00:00Z,30.2791,-87.5561,1.788,29.64,1111122 
DISL,ioos:station:DISL:PPTA:1,2016-09-01T13:30:00Z,30.2791,-87.5561,1.792,28.85,1111122 
DISL,ioos:station:DISL:PPTA:1,2016-09-01T14:00:00Z,30.2791,-87.5561,1.785,28.96,1111122 
DISL,ioos:station:DISL:PPTA:1,2016-09-01T14:30:00Z,30.2791,-87.5561,1.808,29.17,1111122 
DISL,ioos:station:DISL:PPTA:1,2016-09-01T15:00:00Z,30.2791,-87.5561,1.785,27.29,1111122 
DISL,ioos:station:DISL:PPTA:1,2016-09-01T15:30:00Z,30.2791,-87.5561,1.809,28.62,1111122 
DISL,ioos:station:DISL:PPTA:1,2016-09-01T16:00:00Z,30.2791,-87.5561,1.813,28.74,1111122 
DISL,ioos:station:DISL:PPTA:1,2016-09-01T16:30:00Z,30.2791,-87.5561,1.805,28.66,1111122 
DISL,ioos:station:DISL:PPTA:1,2016-09-01T17:00:00Z,30.2791,-87.5561,1.814,28.99,1111122 
DISL,ioos:station:DISL:PPTA:1,2016-09-01T17:30:00Z,30.2791,-87.5561,1.826,28.79,1111122 
DISL,ioos:station:DISL:PPTA:1,2016-09-01T18:00:00Z,30.2791,-87.5561,1.806,28.82,1111122 
DISL,ioos:station:DISL:PPTA:1,2016-09-01T18:30:00Z,30.2791,-87.5561,1.783,28.91,1111122 
DISL,ioos:station:DISL:PPTA:1,2016-09-01T19:00:00Z,30.2791,-87.5561,1.777,28.77,1111122 
DISL,ioos:station:DISL:PPTA:1,2016-09-01T19:30:00Z,30.2791,-87.5561,1.783,28.33,1111122 
DISL,ioos:station:DISL:PPTA:1,2016-09-01T20:00:00Z,30.2791,-87.5561,1.759,27.52,1111122 
DISL,ioos:station:DISL:PPTA:1,2016-09-01T20:30:00Z,30.2791,-87.5561,1.756,27.51,1111122 
DISL,ioos:station:DISL:PPTA:1,2016-09-01T21:00:00Z,30.2791,-87.5561,1.735,25.9,1111122 
DISL,ioos:station:DISL:PPTA:1,2016-09-01T21:30:00Z,30.2791,-87.5561,1.728,27.44,1111122 
DISL,ioos:station:DISL:PPTA:1,2016-09-01T22:00:00Z,30.2791,-87.5561,1.767,27.25,1111122 
DISL,ioos:station:DISL:PPTA:1,2016-09-01T22:30:00Z,30.2791,-87.5561,1.73,22.22,1111122 
DISL,ioos:station:DISL:PPTA:1,2016-09-01T23:00:00Z,30.2791,-87.5561,1.73,21.35,1111122 
DISL,ioos:station:DISL:PPTA:1,2016-09-01T23:30:00Z,30.2791,-87.5561,1.722,23.2,1111122 
DISL,ioos:station:DISL:PPTA:1,2016-09-02T00:00:00Z,30.2791,-87.5561,1.715,26.78,1111122 
DISL,ioos:station:DISL:PPTA:1,2016-09-02T00:30:00Z,30.2791,-87.5561,1.723,25.58,1111122 
DISL,ioos:station:DISL:PPTA:1,2016-09-02T01:00:00Z,30.2791,-87.5561,1.717,21.28,1111122 
DISL,ioos:station:DISL:PPTA:1,2016-09-02T01:30:00Z,30.2791,-87.5561,1.726,24.63,1111122 
DISL,ioos:station:DISL:PPTA:1,2016-09-02T02:00:00Z,30.2791,-87.5561,1.728,21.96,1111122 
DISL,ioos:station:DISL:PPTA:1,2016-09-02T02:30:00Z,30.2791,-87.5561,1.695,22.57,1111122 
DISL,ioos:station:DISL:PPTA:1,2016-09-02T03:00:00Z,30.2791,-87.5561,1.71,22.65,1111122 
DISL,ioos:station:DISL:PPTA:1,2016-09-02T03:30:00Z,30.2791,-87.5561,1.672,22.24,1111122 
DISL,ioos:station:DISL:PPTA:1,2016-09-02T04:00:00Z,30.2791,-87.5561,1.69,22.19,1111122 
DISL,ioos:station:DISL:PPTA:1,2016-09-02T04:30:00Z,30.2791,-87.5561,1.71,21.98,1111122 
DISL,ioos:station:DISL:PPTA:1,2016-09-02T05:00:00Z,30.2791,-87.5561,1.697,25.26,1111122 
DISL,ioos:station:DISL:PPTA:1,2016-09-02T05:30:00Z,30.2791,-87.5561,1.729,25.92,1111122 
DISL,ioos:station:DISL:PPTA:1,2016-09-02T06:00:00Z,30.2791,-87.5561,1.735,25.8,1111122 
DISL,ioos:station:DISL:PPTA:1,2016-09-02T06:30:00Z,30.2791,-87.5561,1.734,27.01,1111122 
DISL,ioos:station:DISL:PPTA:1,2016-09-02T07:00:00Z,30.2791,-87.5561,1.745,27.71,1111122 
DISL,ioos:station:DISL:PPTA:1,2016-09-02T07:30:00Z,30.2791,-87.5561,1.69,28.65,1111122 
DISL,ioos:station:DISL:PPTA:1,2016-09-02T08:00:00Z,30.2791,-87.5561,1.684,28.24,1111122 
DISL,ioos:station:DISL:PPTA:1,2016-09-02T08:30:00Z,30.2791,-87.5561,1.705,28.86,1111122 
DISL,ioos:station:DISL:PPTA:1,2016-09-02T09:00:00Z,30.2791,-87.5561,1.69,29.14,1111122 
DISL,ioos:station:DISL:PPTA:1,2016-09-02T09:30:00Z,30.2791,-87.5561,1.696,28.82,1111122 
DISL,ioos:station:DISL:PPTA:1,2016-09-02T10:00:00Z,30.2791,-87.5561,1.712,29.26,1111122 
DISL,ioos:station:DISL:PPTA:1,2016-09-02T10:30:00Z,30.2791,-87.5561,1.709,29.21,1111122 
DISL,ioos:station:DISL:PPTA:1,2016-09-02T11:00:00Z,30.2791,-87.5561,1.726,29.19,1111122 
DISL,ioos:station:DISL:PPTA:1,2016-09-02T11:30:00Z,30.2791,-87.5561,1.756,29.18,1111122 
DISL,ioos:station:DISL:PPTA:1,2016-09-02T12:00:00Z,30.2791,-87.5561,1.763,29.07,1111122 
DISL,ioos:station:DISL:PPTA:1,2016-09-02T12:30:00Z,30.2791,-87.5561,1.764,28.97,1111122 
DISL,ioos:station:DISL:PPTA:1,2016-09-02T13:00:00Z,30.2791,-87.5561,1.79,29.27,1111122 
DISL,ioos:station:DISL:PPTA:1,2016-09-02T13:30:00Z,30.2791,-87.5561,1.783,29.04,1111122 
DISL,ioos:station:DISL:PPTA:1,2016-09-02T14:00:00Z,30.2791,-87.5561,1.778,29.12,1111122 
DISL,ioos:station:DISL:PPTA:1,2016-09-02T14:30:00Z,30.2791,-87.5561,1.771,29.29,1111122 
DISL,ioos:station:DISL:PPTA:1,2016-09-02T15:00:00Z,30.2791,-87.5561,1.777,29.19,1111122 
DISL,ioos:station:DISL:PPTA:1,2016-09-02T15:30:00Z,30.2791,-87.5561,1.777,29.39,1111122 
DISL,ioos:station:DISL:PPTA:1,2016-09-02T16:00:00Z,30.2791,-87.5561,1.794,29.56,1111122 
DISL,ioos:station:DISL:PPTA:1,2016-09-02T16:30:00Z,30.2791,-87.5561,1.784,29.84,1111122 
DISL,ioos:station:DISL:PPTA:1,2016-09-02T17:00:00Z,30.2791,-87.5561,1.79,29.66,1111122 
DISL,ioos:station:DISL:PPTA:1,2016-09-02T17:30:00Z,30.2791,-87.5561,1.769,29.54,1111122 
DISL,ioos:station:DISL:PPTA:1,2016-09-02T18:00:00Z,30.2791,-87.5561,1.752,29.61,1111122 
DISL,ioos:station:DISL:PPTA:1,2016-09-02T18:30:00Z,30.2791,-87.5561,1.737,27.16,1111122 
DISL,ioos:station:DISL:PPTA:1,2016-09-02T19:00:00Z,30.2791,-87.5561,1.724,27.4,1111122 
DISL,ioos:station:DISL:PPTA:1,2016-09-02T19:30:00Z,30.2791,-87.5561,1.716,26.92,1111122 
DISL,ioos:station:DISL:PPTA:1,2016-09-02T20:00:00Z,30.2791,-87.5561,1.698,28.28,1111122 
DISL,ioos:station:DISL:PPTA:1,2016-09-02T20:30:00Z,30.2791,-87.5561,1.681,26.07,1111122 
DISL,ioos:station:DISL:PPTA:1,2016-09-02T21:00:00Z,30.2791,-87.5561,1.663,25.77,1111122 
DISL,ioos:station:DISL:PPTA:1,2016-09-02T21:30:00Z,30.2791,-87.5561,1.641,23.28,1111122 
DISL,ioos:station:DISL:PPTA:1,2016-09-02T22:00:00Z,30.2791,-87.5561,1.627,22.12,1111122 
DISL,ioos:station:DISL:PPTA:1,2016-09-02T22:30:00Z,30.2791,-87.5561,1.61,23.83,1111122 
DISL,ioos:station:DISL:PPTA:1,2016-09-02T23:00:00Z,30.2791,-87.5561,1.598,27.28,1111122 
DISL,ioos:station:DISL:PPTA:1,2016-09-02T23:30:00Z,30.2791,-87.5561,1.589,20.59,1111122 
DISL,ioos:station:DISL:PPTA:1,2016-09-03T00:00:00Z,30.2791,-87.5561,1.594,20.63,1111122 
DISL,ioos:station:DISL:PPTA:1,2016-09-03T00:30:00Z,30.2791,-87.5561,1.602,24.94,1111122 
DISL,ioos:station:DISL:PPTA:1,2016-09-03T01:00:00Z,30.2791,-87.5561,1.602,22.92,1111122 
DISL,ioos:station:DISL:PPTA:1,2016-09-03T01:30:00Z,30.2791,-87.5561,1.607,23.66,1111122 
DISL,ioos:station:DISL:PPTA:1,2016-09-03T02:00:00Z,30.2791,-87.5561,1.593,23.28,1111122 
DISL,ioos:station:DISL:PPTA:1,2016-09-03T02:30:00Z,30.2791,-87.5561,1.585,26.15,1111122 
DISL,ioos:station:DISL:PPTA:1,2016-09-03T03:00:00Z,30.2791,-87.5561,1.575,22.66,1111122 
DISL,ioos:station:DISL:PPTA:1,2016-09-03T03:30:00Z,30.2791,-87.5561,1.577,23.43,1111122 
DISL,ioos:station:DISL:PPTA:1,2016-09-03T04:00:00Z,30.2791,-87.5561,1.571,22.33,1111122 
DISL,ioos:station:DISL:PPTA:1,2016-09-03T04:30:00Z,30.2791,-87.5561,1.566,23.03,1111122 
DISL,ioos:station:DISL:PPTA:1,2016-09-03T05:00:00Z,30.2791,-87.5561,1.558,23.51,1111122 
DISL,ioos:station:DISL:PPTA:1,2016-09-03T05:30:00Z,30.2791,-87.5561,1.574,22.55,1111122 
DISL,ioos:station:DISL:PPTA:1,2016-09-03T06:00:00Z,30.2791,-87.5561,1.552,19.32,1111122 
DISL,ioos:station:DISL:PPTA:1,2016-09-03T06:30:00Z,30.2791,-87.5561,1.568,22.52,1111122 
DISL,ioos:station:DISL:PPTA:1,2016-09-03T07:00:00Z,30.2791,-87.5561,1.554,21.82,1111122 
DISL,ioos:station:DISL:PPTA:1,2016-09-03T07:30:00Z,30.2791,-87.5561,1.547,23.52,1111122 
DISL,ioos:station:DISL:PPTA:1,2016-09-03T08:00:00Z,30.2791,-87.5561,1.551,20.54,1111122 
DISL,ioos:station:DISL:PPTA:1,2016-09-03T08:30:00Z,30.2791,-87.5561,1.536,22.31,1111122 
DISL,ioos:station:DISL:PPTA:1,2016-09-03T09:00:00Z,30.2791,-87.5561,1.543,20.12,1111122 
DISL,ioos:station:DISL:PPTA:1,2016-09-03T13:30:00Z,30.2791,-87.5561,1.589,26.17,1111122 
DISL,ioos:station:DISL:PPTA:1,2016-09-03T14:00:00Z,30.2791,-87.5561,1.569,25.52,1111122 
DISL,ioos:station:DISL:PPTA:1,2016-09-03T14:30:00Z,30.2791,-87.5561,1.586,28.31,1111122 
DISL,ioos:station:DISL:PPTA:1,2016-09-03T15:00:00Z,30.2791,-87.5561,1.595,28.39,1111122 
DISL,ioos:station:DISL:PPTA:1,2016-09-03T15:30:00Z,30.2791,-87.5561,1.566,28.64,1111122 
DISL,ioos:station:DISL:PPTA:1,2016-09-03T16:00:00Z,30.2791,-87.5561,1.575,29.14,1111122 
DISL,ioos:station:DISL:PPTA:1,2016-09-03T16:30:00Z,30.2791,-87.5561,1.61,29.34,1111122 
DISL,ioos:station:DISL:PPTA:1,2016-09-03T17:00:00Z,30.2791,-87.5561,1.621,29.54,1111122 
DISL,ioos:station:DISL:PPTA:1,2016-09-03T17:30:00Z,30.2791,-87.5561,1.609,29.38,1111122 
DISL,ioos:station:DISL:PPTA:1,2016-09-03T18:00:00Z,30.2791,-87.5561,1.587,29.42,1111122 
DISL,ioos:station:DISL:PPTA:1,2016-09-03T18:30:00Z,30.2791,-87.5561,1.591,29.19,1111122 
DISL,ioos:station:DISL:PPTA:1,2016-09-03T19:00:00Z,30.2791,-87.5561,1.607,27.9,1111122 
DISL,ioos:station:DISL:PPTA:1,2016-09-03T19:30:00Z,30.2791,-87.5561,1.585,23.38,1111122 
DISL,ioos:station:DISL:PPTA:1,2016-09-03T20:00:00Z,30.2791,-87.5561,1.607,20.46,1111122 
DISL,ioos:station:DISL:PPTA:1,2016-09-03T20:30:00Z,30.2791,-87.5561,1.568,20.64,1111122 
DISL,ioos:station:DISL:PPTA:1,2016-09-03T21:00:00Z,30.2791,-87.5561,1.568,22.16,1111122 
DISL,ioos:station:DISL:PPTA:1,2016-09-03T21:30:00Z,30.2791,-87.5561,1.548,21.37,1111122 
DISL,ioos:station:DISL:PPTA:1,2016-09-03T22:00:00Z,30.2791,-87.5561,1.573,22.32,1111122 
DISL,ioos:station:DISL:PPTA:1,2016-09-03T22:30:00Z,30.2791,-87.5561,1.545,20.69,1111122 
DISL,ioos:station:DISL:PPTA:1,2016-09-03T23:00:00Z,30.2791,-87.5561,1.568,23.08,1111122 
DISL,ioos:station:DISL:PPTA:1,2016-09-03T23:30:00Z,30.2791,-87.5561,1.562,19.3,1111122 
DISL,ioos:station:DISL:PPTA:1,2016-09-04T00:00:00Z,30.2791,-87.5561,1.548,20.16,1111122 
DISL,ioos:station:DISL:PPTA:1,2016-09-04T00:30:00Z,30.2791,-87.5561,1.537,21.09,1111122 
DISL,ioos:station:DISL:PPTA:1,2016-09-04T01:00:00Z,30.2791,-87.5561,1.562,20.91,1111122 
DISL,ioos:station:DISL:PPTA:1,2016-09-04T01:30:00Z,30.2791,-87.5561,1.557,20.68,1111122 
DISL,ioos:station:DISL:PPTA:1,2016-09-04T02:00:00Z,30.2791,-87.5561,1.566,19.62,1111122 
DISL,ioos:station:DISL:PPTA:1,2016-09-04T02:30:00Z,30.2791,-87.5561,1.583,19.21,1111122 
DISL,ioos:station:DISL:PPTA:1,2016-09-04T03:00:00Z,30.2791,-87.5561,1.548,19.96,1111122 
DISL,ioos:station:DISL:PPTA:1,2016-09-04T03:30:00Z,30.2791,-87.5561,1.527,21.3,1111122 
DISL,ioos:station:DISL:PPTA:1,2016-09-04T04:00:00Z,30.2791,-87.5561,1.556,21.29,1111122 
DISL,ioos:station:DISL:PPTA:1,2016-09-04T04:30:00Z,30.2791,-87.5561,1.573,19.13,1111122 
DISL,ioos:station:DISL:PPTA:1,2016-09-04T05:00:00Z,30.2791,-87.5561,1.565,18.37,1111122 
DISL,ioos:station:DISL:PPTA:1,2016-09-04T05:30:00Z,30.2791,-87.5561,1.535,22.54,1111122 
DISL,ioos:station:DISL:PPTA:1,2016-09-04T06:00:00Z,30.2791,-87.5561,1.539,21.52,1111122 
DISL,ioos:station:DISL:PPTA:1,2016-09-04T06:30:00Z,30.2791,-87.5561,1.527,22.13,1111122 
DISL,ioos:station:DISL:PPTA:1,2016-09-04T07:00:00Z,30.2791,-87.5561,1.514,22.46,1111122 
DISL,ioos:station:DISL:PPTA:1,2016-09-04T07:30:00Z,30.2791,-87.5561,1.555,18.13,1111122 
DISL,ioos:station:DISL:PPTA:1,2016-09-04T08:00:00Z,30.2791,-87.5561,1.528,18.13,1111122 
DISL,ioos:station:DISL:PPTA:1,2016-09-04T08:30:00Z,30.2791,-87.5561,1.522,18.04,1111122 
DISL,ioos:station:DISL:PPTA:1,2016-09-04T09:00:00Z,30.2791,-87.5561,1.527,16.82,1111122 
DISL,ioos:station:DISL:PPTA:1,2016-09-04T09:30:00Z,30.2791,-87.5561,1.498,22.8,1111122 
DISL,ioos:station:DISL:PPTA:1,2016-09-04T10:00:00Z,30.2791,-87.5561,1.513,20.57,1111122 
DISL,ioos:station:DISL:PPTA:1,2016-09-04T10:30:00Z,30.2791,-87.5561,1.492,20.88,1111122 
DISL,ioos:station:DISL:PPTA:1,2016-09-04T11:00:00Z,30.2791,-87.5561,1.496,18.98,1111122 
DISL,ioos:station:DISL:PPTA:1,2016-09-04T11:30:00Z,30.2791,-87.5561,1.502,21.57,1111122 
DISL,ioos:station:DISL:PPTA:1,2016-09-04T12:00:00Z,30.2791,-87.5561,1.515,16.99,1111122 
DISL,ioos:station:DISL:PPTA:1,2016-09-04T12:30:00Z,30.2791,-87.5561,1.494,20.06,1111122 
DISL,ioos:station:DISL:PPTA:1,2016-09-04T13:00:00Z,30.2791,-87.5561,1.503,21.0,1111122 
DISL,ioos:station:DISL:PPTA:1,2016-09-04T13:30:00Z,30.2791,-87.5561,1.508,20.32,1111122 
DISL,ioos:station:DISL:PPTA:1,2016-09-04T14:00:00Z,30.2791,-87.5561,1.51,19.93,1111122 
DISL,ioos:station:DISL:PPTA:1,2016-09-04T14:30:00Z,30.2791,-87.5561,1.512,17.73,1111122 
DISL,ioos:station:DISL:PPTA:1,2016-09-04T15:00:00Z,30.2791,-87.5561,1.516,19.48,1111122 
DISL,ioos:station:DISL:PPTA:1,2016-09-04T15:30:00Z,30.2791,-87.5561,1.49,17.65,1111122 
DISL,ioos:station:DISL:PPTA:1,2016-09-04T16:00:00Z,30.2791,-87.5561,1.491,21.43,1111122 
DISL,ioos:station:DISL:PPTA:1,2016-09-04T16:30:00Z,30.2791,-87.5561,1.493,20.91,1111122 
DISL,ioos:station:DISL:PPTA:1,2016-09-04T17:00:00Z,30.2791,-87.5561,1.471,19.36,1111122 
DISL,ioos:station:DISL:PPTA:1,2016-09-04T17:30:00Z,30.2791,-87.5561,1.505,21.22,1111122 
DISL,ioos:station:DISL:PPTA:1,2016-09-04T18:00:00Z,30.2791,-87.5561,1.491,19.43,1111122 
DISL,ioos:station:DISL:PPTA:1,2016-09-04T18:30:00Z,30.2791,-87.5561,1.48,20.12,1111122 
DISL,ioos:station:DISL:PPTA:1,2016-09-04T19:00:00Z,30.2791,-87.5561,1.484,19.31,1111122 
DISL,ioos:station:DISL:PPTA:1,2016-09-04T19:30:00Z,30.2791,-87.5561,1.473,17.41,1111122 
DISL,ioos:station:DISL:PPTA:1,2016-09-04T20:00:00Z,30.2791,-87.5561,1.482,16.72,1111122 
DISL,ioos:station:DISL:PPTA:1,2016-09-04T20:30:00Z,30.2791,-87.5561,1.482,17.38,1111122 
DISL,ioos:station:DISL:PPTA:1,2016-09-04T21:00:00Z,30.2791,-87.5561,1.482,17.35,1111122 
DISL,ioos:station:DISL:PPTA:1,2016-09-04T21:30:00Z,30.2791,-87.5561,1.47,16.22,1111122 
DISL,ioos:station:DISL:PPTA:1,2016-09-04T22:00:00Z,30.2791,-87.5561,1.467,18.26,1111122 
DISL,ioos:station:DISL:PPTA:1,2016-09-04T22:30:00Z,30.2791,-87.5561,1.463,17.61,1111122 
DISL,ioos:station:DISL:PPTA:1,2016-09-04T23:00:00Z,30.2791,-87.5561,1.463,16.27,1111122 
DISL,ioos:station:DISL:PPTA:1,2016-09-04T23:30:00Z,30.2791,-87.5561,1.472,16.89,1111122 
DISL,ioos:station:DISL:PPTA:1,2016-09-05T00:00:00Z,30.2791,-87.5561,1.458,16.43,1111122 
DISL,ioos:station:DISL:PPTA:1,2016-09-05T00:30:00Z,30.2791,-87.5561,1.465,17.48,1111122 
DISL,ioos:station:DISL:PPTA:1,2016-09-05T01:00:00Z,30.2791,-87.5561,1.476,15.16,1111122 
DISL,ioos:station:DISL:PPTA:1,2016-09-05T01:30:00Z,30.2791,-87.5561,1.47,19.16,1111122 
DISL,ioos:station:DISL:PPTA:1,2016-09-05T02:00:00Z,30.2791,-87.5561,1.479,15.82,1111122 
DISL,ioos:station:DISL:PPTA:1,2016-09-05T02:30:00Z,30.2791,-87.5561,1.512,19.25,1111122 
DISL,ioos:station:DISL:PPTA:1,2016-09-05T03:00:00Z,30.2791,-87.5561,1.5,16.07,1111122 
DISL,ioos:station:DISL:PPTA:1,2016-09-05T03:30:00Z,30.2791,-87.5561,1.494,19.66,1111122 
DISL,ioos:station:DISL:PPTA:1,2016-09-05T04:00:00Z,30.2791,-87.5561,1.486,25.24,1111122 
DISL,ioos:station:DISL:PPTA:1,2016-09-05T04:30:00Z,30.2791,-87.5561,1.48,24.82,1111122 
DISL,ioos:station:DISL:PPTA:1,2016-09-05T05:00:00Z,30.2791,-87.5561,1.485,26.92,1111122 
DISL,ioos:station:DISL:PPTA:1,2016-09-05T05:30:00Z,30.2791,-87.5561,1.479,27.07,1111122 
DISL,ioos:station:DISL:PPTA:1,2016-09-05T06:00:00Z,30.2791,-87.5561,1.476,27.32,1111122 
DISL,ioos:station:DISL:PPTA:1,2016-09-05T06:30:00Z,30.2791,-87.5561,1.493,27.01,1111122 
DISL,ioos:station:DISL:PPTA:1,2016-09-05T13:30:00Z,30.2791,-87.5561,1.498,18.15,1111122 
DISL,ioos:station:DISL:PPTA:1,2016-09-05T14:00:00Z,30.2791,-87.5561,1.514,16.09,1111122 
DISL,ioos:station:DISL:PPTA:1,2016-09-05T14:30:00Z,30.2791,-87.5561,1.508,15.81,1111122 
DISL,ioos:station:DISL:PPTA:1,2016-09-05T15:00:00Z,30.2791,-87.5561,1.503,16.11,1111122 
DISL,ioos:station:DISL:PPTA:1,2016-09-05T15:30:00Z,30.2791,-87.5561,1.483,19.26,1111122 
DISL,ioos:station:DISL:PPTA:1,2016-09-05T16:00:00Z,30.2791,-87.5561,1.495,16.62,1111122 
DISL,ioos:station:DISL:PPTA:1,2016-09-05T16:30:00Z,30.2791,-87.5561,1.476,16.43,1111122 
DISL,ioos:station:DISL:PPTA:1,2016-09-05T17:00:00Z,30.2791,-87.5561,1.475,16.18,1111122 
DISL,ioos:station:DISL:PPTA:1,2016-09-05T17:30:00Z,30.2791,-87.5561,1.486,16.35,1111122 
DISL,ioos:station:DISL:PPTA:1,2016-09-05T18:00:00Z,30.2791,-87.5561,1.451,16.94,1111122 
DISL,ioos:station:DISL:PPTA:1,2016-09-05T18:30:00Z,30.2791,-87.5561,1.488,16.99,1111122 
DISL,ioos:station:DISL:PPTA:1,2016-09-05T19:00:00Z,30.2791,-87.5561,1.48,16.33,1111122 
DISL,ioos:station:DISL:PPTA:1,2016-09-05T19:30:00Z,30.2791,-87.5561,1.433,16.52,1111122 
DISL,ioos:station:DISL:PPTA:1,2016-09-05T20:00:00Z,30.2791,-87.5561,1.443,19.43,1111122 
DISL,ioos:station:DISL:PPTA:1,2016-09-05T20:30:00Z,30.2791,-87.5561,1.436,17.68,1111122 
DISL,ioos:station:DISL:PPTA:1,2016-09-05T21:00:00Z,30.2791,-87.5561,1.443,16.73,1111122 
DISL,ioos:station:DISL:PPTA:1,2016-09-05T21:30:00Z,30.2791,-87.5561,1.423,17.0,1111122 
DISL,ioos:station:DISL:PPTA:1,2016-09-05T22:00:00Z,30.2791,-87.5561,1.459,18.8,1111122 
DISL,ioos:station:DISL:PPTA:1,2016-09-05T22:30:00Z,30.2791,-87.5561,1.429,16.45,1111122 
DISL,ioos:station:DISL:PPTA:1,2016-09-05T23:00:00Z,30.2791,-87.5561,1.446,16.55,1111122 
DISL,ioos:station:DISL:PPTA:1,2016-09-05T23:30:00Z,30.2791,-87.5561,1.452,15.82,1111122 
DISL,ioos:station:DISL:PPTA:1,2016-09-06T00:00:00Z,30.2791,-87.5561,1.437,15.59,1111122 
DISL,ioos:station:DISL:PPTA:1,2016-09-06T00:30:00Z,30.2791,-87.5561,1.45,16.27,1111122 
DISL,ioos:station:DISL:PPTA:1,2016-09-06T01:00:00Z,30.2791,-87.5561,1.486,15.57,1111122 
DISL,ioos:station:DISL:PPTA:1,2016-09-06T01:30:00Z,30.2791,-87.5561,1.484,15.97,1111122 
DISL,ioos:station:DISL:PPTA:1,2016-09-06T02:00:00Z,30.2791,-87.5561,1.492,15.93,1111122 
DISL,ioos:station:DISL:PPTA:1,2016-09-06T02:30:00Z,30.2791,-87.5561,1.5,17.84,1111122 
DISL,ioos:station:DISL:PPTA:1,2016-09-06T03:00:00Z,30.2791,-87.5561,1.506,22.93,1111122 
DISL,ioos:station:DISL:PPTA:1,2016-09-06T03:30:00Z,30.2791,-87.5561,1.513,24.91,1111122 
DISL,ioos:station:DISL:PPTA:1,2016-09-06T04:00:00Z,30.2791,-87.5561,1.523,24.76,1111122 
DISL,ioos:station:DISL:PPTA:1,2016-09-06T04:30:00Z,30.2791,-87.5561,1.517,25.48,1111122 
DISL,ioos:station:DISL:PPTA:1,2016-09-06T05:00:00Z,30.2791,-87.5561,1.517,24.9,1111122 
DISL,ioos:station:DISL:PPTA:1,2016-09-06T05:30:00Z,30.2791,-87.5561,1.53,24.46,1111122 
DISL,ioos:station:DISL:PPTA:1,2016-09-06T06:00:00Z,30.2791,-87.5561,1.534,24.74,1111122 
DISL,ioos:station:DISL:PPTA:1,2016-09-06T06:30:00Z,30.2791,-87.5561,1.551,25.16,1111122 
DISL,ioos:station:DISL:PPTA:1,2016-09-06T07:00:00Z,30.2791,-87.5561,1.554,24.88,1111122 
DISL,ioos:station:DISL:PPTA:1,2016-09-06T07:30:00Z,30.2791,-87.5561,1.551,26.4,1111122 
DISL,ioos:station:DISL:PPTA:1,2016-09-06T08:00:00Z,30.2791,-87.5561,1.547,25.55,1111122 
DISL,ioos:station:DISL:PPTA:1,2016-09-06T08:30:00Z,30.2791,-87.5561,1.539,25.26,1111122 
DISL,ioos:station:DISL:PPTA:1,2016-09-06T09:00:00Z,30.2791,-87.5561,1.552,25.71,1111122 
DISL,ioos:station:DISL:PPTA:1,2016-09-06T09:30:00Z,30.2791,-87.5561,1.537,25.57,1111122 
DISL,ioos:station:DISL:PPTA:1,2016-09-06T10:00:00Z,30.2791,-87.5561,1.524,25.41,1111122 
DISL,ioos:station:DISL:PPTA:1,2016-09-06T10:30:00Z,30.2791,-87.5561,1.512,24.77,1111122 
DISL,ioos:station:DISL:PPTA:1,2016-09-06T11:00:00Z,30.2791,-87.5561,1.523,19.9,1111122 
DISL,ioos:station:DISL:PPTA:1,2016-09-06T11:30:00Z,30.2791,-87.5561,1.519,20.77,1111122 
DISL,ioos:station:DISL:PPTA:1,2016-09-06T12:00:00Z,30.2791,-87.5561,1.511,23.99,1111122 
DISL,ioos:station:DISL:PPTA:1,2016-09-06T12:30:00Z,30.2791,-87.5561,1.506,20.53,1111122 
DISL,ioos:station:DISL:PPTA:1,2016-09-06T13:00:00Z,30.2791,-87.5561,1.505,22.69,1111122 
DISL,ioos:station:DISL:PPTA:1,2016-09-06T13:30:00Z,30.2791,-87.5561,1.501,21.27,1111122 
DISL,ioos:station:DISL:PPTA:1,2016-09-06T14:00:00Z,30.2791,-87.5561,1.492,23.87,1111122 
DISL,ioos:station:DISL:PPTA:1,2016-09-06T14:30:00Z,30.2791,-87.5561,1.513,21.57,1111122 
DISL,ioos:station:DISL:PPTA:1,2016-09-06T15:00:00Z,30.2791,-87.5561,1.501,21.28,1111122 
DISL,ioos:station:DISL:PPTA:1,2016-09-06T15:30:00Z,30.2791,-87.5561,1.505,20.52,1111122 
DISL,ioos:station:DISL:PPTA:1,2016-09-06T16:00:00Z,30.2791,-87.5561,1.501,18.72,1111122 
DISL,ioos:station:DISL:PPTA:1,2016-09-06T16:30:00Z,30.2791,-87.5561,1.496,18.88,1111122 
DISL,ioos:station:DISL:PPTA:1,2016-09-06T17:00:00Z,30.2791,-87.5561,1.48,18.84,1111122 
DISL,ioos:station:DISL:PPTA:1,2016-09-06T17:30:00Z,30.2791,-87.5561,1.463,17.93,1111122 
DISL,ioos:station:DISL:PPTA:1,2016-09-06T18:00:00Z,30.2791,-87.5561,1.482,18.17,1111122 
DISL,ioos:station:DISL:PPTA:1,2016-09-06T18:30:00Z,30.2791,-87.5561,1.477,18.25,1111122 
DISL,ioos:station:DISL:PPTA:1,2016-09-06T19:00:00Z,30.2791,-87.5561,1.476,18.15,1111122 
DISL,ioos:station:DISL:PPTA:1,2016-09-06T19:30:00Z,30.2791,-87.5561,1.468,18.37,1111122 
DISL,ioos:station:DISL:PPTA:1,2016-09-06T20:00:00Z,30.2791,-87.5561,1.475,17.75,1111122 
DISL,ioos:station:DISL:PPTA:1,2016-09-06T20:30:00Z,30.2791,-87.5561,1.465,18.01,1111122 
DISL,ioos:station:DISL:PPTA:1,2016-09-06T21:00:00Z,30.2791,-87.5561,1.467,18.12,1111122 
DISL,ioos:station:DISL:PPTA:1,2016-09-06T21:30:00Z,30.2791,-87.5561,1.465,19.46,1111122 
DISL,ioos:station:DISL:PPTA:1,2016-09-06T22:00:00Z,30.2791,-87.5561,1.456,21.58,1111122 
DISL,ioos:station:DISL:PPTA:1,2016-09-06T22:30:00Z,30.2791,-87.5561,1.46,21.17,1111122 
DISL,ioos:station:DISL:PPTA:1,2016-09-06T23:00:00Z,30.2791,-87.5561,1.479,21.79,1111122 
DISL,ioos:station:DISL:PPTA:1,2016-09-06T23:30:00Z,30.2791,-87.5561,1.468,21.93,1111122 
DISL,ioos:station:DISL:PPTA:1,2016-09-07T00:00:00Z,30.2791,-87.5561,1.48,24.78,1111122 
DISL,ioos:station:DISL:PPTA:1,2016-09-07T00:30:00Z,30.2791,-87.5561,1.488,26.37,1111122 
DISL,ioos:station:DISL:PPTA:1,2016-09-07T01:00:00Z,30.2791,-87.5561,1.483,25.79,1111122 
DISL,ioos:station:DISL:PPTA:1,2016-09-07T01:30:00Z,30.2791,-87.5561,1.514,26.88,1111122 